Tracking 29747 objects as of 9-Oct-2024
HD Live streaming from Space Station
objects crossing your sky now

SL-14 DEB

Track SL-14 DEB now!
10-day predictions


NORAD ID: 45313
Int'l Code: 1991-056BB
Perigee: 1,028.6 km
Apogee: 1,187.8 km
Inclination: 82.6 °
Period: 107.3 minutes
Semi major axis: 7479 km
RCS: Unknown
Launch date: August 15, 1991
Source: Commonwealth of Independent States (former USSR) (CIS)
Launch site: PLESETSK MISSILE AND SPACE COMPLEX (PKMTR)

Note: This is SATELLITE DEBRIS
Your satellite tracking list
Your tracking list is empty




NASA's NSSDC Master Catalog

Two Line Element Set (TLE):
1 45313U 91056BB  24283.11522086  .00004236  00000-0  72556-2 0  9993
2 45313  82.5778 170.0685 0106479 338.5023  21.1658 13.42211399225864
Source of the keplerian elements: AFSPC